World > North America > United States > Texas

Hourly Mountain City, TX Regional Weather

Feedback E-mail the Weather

Quick WX

Mountain City, TX Weather Maps

°F °C°F °C
Mountain City Weather Map
UTC Time: 7/1/2022, 01:28
Your Time:

Mountain City, TX Regional Weather

Expires:202207010200;;468276
ASUS44 KSJT 010115
RWRSJT
WEST CENTRAL TEXAS REGIONAL WEATHER ROUNDUP
NATIONAL WEATHER SERVICE SAN ANGELO TX
800 PM CDT THU JUN 30 2022

NOTE: "FAIR" INDICATES FEW OR NO CLOUDS BELOW 12,000 FEET WITH NO
SIGNIFICANT WEATHER AND/OR OBSTRUCTIONS TO VISIBILITY.


TXZ145-158-159-173-191-192-194-205-207-220-223-010200-
CENTRAL AND SOUTH CENTRAL TEXAS
  
CITY           SKY/WX    TMP DP  RH WIND       PRES   REMARKS
AUSTIN/BERGSTM PTCLDY    91  69  48 E13       29.90S                  
WACO           PTCLDY    93  67  42 SE17G25   29.91R                  
HILLSBORO      CLEAR     94  64  37 E8        29.91S                  
TEMPLE         CLEAR     91  68  46 SE13      29.93S                  
KILLEEN-GRAY   CLEAR     92  61  34 E12       29.90S                  
FORT HOOD      CLEAR     92  62  35 SE9       29.93S                  
GEORGETOWN     PTCLDY    93  66  40 E9G16     29.94S                  
LAGO VISTA     FAIR      92  64  38 SE3       29.95S                  
SAN MARCOS     PTCLDY    90  69  50 E14       29.92R                  
NEW BRAUNFELS  CLEAR     93  64  38 E13       29.90R                  
RANDOLPH AFB   CLEAR     92  63  37 E8        29.89R                  
SAN ANTONIO    PTCLDY    93  64  38 E10       29.91S                  
STINSON        CLEAR     94  66  39 E7        29.88R                  
PLEASANTON     NOT AVBL                                               
LA GRANGE      PTCLDY    87  71  59 SE12      29.92R                  
GIDDINGS       PTCLDY    87  68  54 SE9       29.95R                  
$$


SKY/WX - Weather  TMP - Temperature  DP - Dew Point  RH - Humidity
WIND - Wind Direction/Speed PRES - Barometric Pressure VSB - Visibility
WCI - Wind Chill Index E13G22 Wind - East Wind 13 mph/Gusts of 22 mph

Trending Headlines

Mountain City Radar Loop



Mountain City Quick Facts


National Two Day Weather Forecast


E-mail the Mountain City Weather Forecast

Voice your opinion or tell us about page issues...